This demonstration page uses our WeatherBlox Daily Observations layout. Learn more.

Left ArrowRight Arrow

36.19886, -115.1175

Hourly Observations for August 19, 2022

Temp ( °F °C ) Dew Point ( °F °C ) Humidity (%) Winds ( mph kmh ) Pressure ( in mb ) Visibility ( mi km ) Precip ( " mm )
12:21 am 00:21 Mostly Cloudy 79 26.1 62 16.7 56 56 NE 10 17 29.81 1009 10 16 0.00 0.00
12:53 am 00:53 Partly Cloudy 79 26.1 62 16.7 56 56 Calm 29.89 1012 10 16 0.00 0.00
1:53 am 01:53 Clear 83 28.3 59 15 44 44 SSW 7 11 29.84 1011 10 16 0.00 0.00
2:53 am 02:53 Clear 81 27.2 61 16.1 51 51 N 6 9 29.84 1010 10 16 0.00 0.00
3:53 am 03:53 Clear 81 27.2 62 16.7 53 53 NE 5 7 29.83 1010 10 16 0.00 0.00
4:53 am 04:53 Clear 82 27.8 61 16.1 49 49 NW 9 15 29.83 1010 10 16 0.00 0.00
5:53 am 05:53 Clear 81 27.2 62 16.7 53 53 NNW 12 19 29.85 1011 10 16 0.00 0.00
6:53 am 06:53 Sunny 81 27.2 64 17.8 57 57 N 5 7 29.87 1011 10 16 0.00 0.00
7:53 am 07:53 Sunny 84 28.9 61 16.1 46 46 Calm 29.88 1012 10 16 0.00 0.00
8:53 am 08:53 Sunny 85 29.4 61 16.1 45 45 Calm 29.87 1012 10 16 0.00 0.00
9:53 am 09:53 Sunny 90 32.2 60 15.6 37 37 VRB 3 6 29.87 1011 10 16 0.00 0.00
10:53 am 10:53 Sunny 92 33.3 58 14.4 32 32 Calm 29.85 1011 10 16 0.00 0.00
11:53 am 11:53 Sunny 94 34.4 57 13.9 29 29 S 6 9 29.84 1010 10 16 0.00 0.00
12:53 pm 12:53 Sunny 96 35.6 57 13.9 27 27 ESE 3 6 29.81 1009 10 16 0.00 0.00
1:53 pm 13:53 Sunny 98 36.7 56 13.3 25 25 Calm 29.77 1008 10 16 0.00 0.00
2:53 pm 14:53 Sunny 99 37.2 55 12.8 23 23 SE 8 13 29.74 1007 10 16 0.00 0.00
3:53 pm 15:53 Sunny 101 38.3 54 12.2 21 21 VRB 6 9 29.71 1006 10 16 0.00 0.00
4:53 pm 16:53 Sunny 102 38.9 53 11.7 20 20 E 9 15 29.68 1005 10 16 0.00 0.00
5:53 pm 17:53 Sunny 101 38.3 52 11.1 20 20 SSE 8 13 29.67 1005 10 16 0.00 0.00
6:53 pm 18:53 Sunny 100 37.8 51 10.6 20 20 SE 7 11 29.67 1005 10 16 0.00 0.00
7:53 pm 19:53 Clear 99 37.2 54 12.2 22 22 SSW 9 15 29.68 1005 10 16 0.00 0.00
8:53 pm 20:53 Clear 97 36.1 55 12.8 25 25 SW 6 9 29.70 1006 10 16 0.00 0.00
9:53 pm 21:53 Clear 96 35.6 55 12.8 25 25 WSW 5 7 29.71 1006 10 16 0.00 0.00
10:53 pm 22:53 Clear 94 34.4 57 13.9 29 29 W 5 7 29.71 1006 10 16 0.00 0.00
11:53 pm 23:53 Clear 91 32.8 56 13.3 31 31 ESE 7 11 29.72 1007 10 16 0.00 0.00

Powered by AerisWeather